{"data":{"norad_id":67153,"epoch":"2026-09-20T23:34:28.579008Z","epoch_age_seconds":64486,"freshness":"FRESH","line1":"1 67153U 25301W   26263.98227522  .00001633  00000+0  24313-3 0  9997","line2":"2 67153  51.8988 257.1185 0000568  66.5757 293.5265 14.79934331 43167","mean_motion":14.79934331,"eccentricity":5.68e-5,"inclination_deg":51.8988,"raan_deg":257.1185,"arg_perigee_deg":66.5757,"mean_anomaly_deg":293.5265,"bstar":0.00024313,"rev_number":4316,"period_min":97.301614661982,"perigee_km":629.13339197428,"apogee_km":629.92946310765,"semimajor_km":7007.668427541,"source":"CELESTRAK","updated_at":"2026-09-21T09:00:16.460008Z"}}